GW2298 Weather Reports


time (UTC)temp
C
wind
direction
speed
KPH
gust
KPH
rain 1hr
cm
rain 24hr
cm
rain mn
cm
humidity
%
barometer
mb
20260504234811 20 154 6.4 8.0 0.00 0.00 0.00 37 4456.6
20260504234309 20 116 4.8 8.0 0.00 0.00 0.00 37 4456.6
20260504233805 20 199 9.7 16.1 0.00 0.00 0.00 38 4457.0
20260504233301 20 280 8.0 11.3 0.00 0.00 0.00 38 4457.0
20260504232758 20 345 8.0 16.1 0.00 0.00 0.00 37 4456.6
20260504232255 20 60 6.4 8.0 0.00 0.00 0.00 37 4456.6
20260504231752 19 225 9.7 11.3 0.00 0.00 0.00 36 4457.0
20260504231248 19 136 6.4 8.0 0.00 0.00 0.00 38 4456.6
20260504230744 18 183 3.2 4.8 0.00 0.00 0.00 38 4456.6
20260504230243 18 153 3.2 4.8 0.00 0.00 0.00 37 4457.0
20260504225741 19 201 6.4 8.0 0.00 0.00 0.00 38 4456.6
20260504225237 19 168 4.8 4.8 0.00 0.00 0.00 36 4456.6
20260504224735 19 172 4.8 4.8 0.00 0.00 0.00 37 4456.6
20260504224232 20 332 4.8 8.0 0.00 0.00 0.00 35 4456.6
20260504223728 20 241 6.4 11.3 0.00 0.00 0.00 36 4456.6
20260504223223 20 231 3.2 4.8 0.00 0.00 0.00 32 4456.6
20260504222721 20 232 0.0 0.0 0.00 0.00 0.00 33 4456.6
20260504222218 20 343 3.2 4.8 0.00 0.00 0.00 34 4456.6
20260504221715 20 343 4.8 8.0 0.00 0.00 0.00 36 4456.6
20260504221212 20 321 3.2 4.8 0.00 0.00 0.00 34 4457.0
20260504220708 20 325 4.8 8.0 0.00 0.00 0.00 33 4456.6
20260504220206 20 195 1.6 3.2 0.00 0.00 0.00 34 4456.6
20260504215702 19 339 3.2 4.8 0.00 0.00 0.00 34 4456.6
20260504215200 18 12 8.0 8.0 0.00 0.00 0.00 33 4457.0
20260504214655 19 65 8.0 14.5 0.00 0.00 0.00 34 4457.0
20260504214152 19 30 4.8 4.8 0.00 0.00 0.00 35 4457.0
20260504213649 20 28 11.3 11.3 0.00 0.00 0.00 35 4456.6
20260504213145 19 317 4.8 8.0 0.00 0.00 0.00 32 4457.0
20260504212642 20 335 16.1 22.5 0.00 0.00 0.00 32 4457.0
20260504212138 19 46 9.7 11.3 0.00 0.00 0.00 34 4457.0
20260504211636 19 10 11.3 11.3 0.00 0.00 0.00 34 4457.0
20260504211132 19 44 9.7 14.5 0.00 0.00 0.00 32 4457.3
20260504210630 19 54 14.5 22.5 0.00 0.00 0.00 36 4457.0
20260504210126 19 127 8.0 14.5 0.00 0.00 0.00 33 4457.3
20260504205624 19 87 3.2 4.8 0.00 0.00 0.00 33 4457.3
20260504205121 19 129 3.2 8.0 0.00 0.00 0.00 34 4457.0
20260504204620 19 87 3.2 8.0 0.00 0.00 0.00 34 4457.0
20260504204118 18 21 12.9 14.5 0.00 0.00 0.00 32 4457.0
20260504203616 18 78 4.8 4.8 0.00 0.00 0.00 32 4457.0
20260504203114 19 103 0.0 3.2 0.00 0.00 0.00 34 4457.3
20260504202609 18 42 3.2 4.8 0.00 0.00 0.00 35 4457.3
20260504202106 18 37 4.8 4.8 0.00 0.00 0.00 35 4457.7
20260504201603 19 73 3.2 8.0 0.00 0.00 0.00 34 4457.3
20260504201101 18 81 0.0 0.0 0.00 0.00 0.00 32 4457.3
20260504200556 18 45 16.1 22.5 0.00 0.00 0.00 36 4457.7
20260504200054 18 357 12.9 16.1 0.00 0.00 0.00 35 4457.7
20260504195550 18 71 0.0 3.2 0.00 0.00 0.00 37 4457.3
20260504195046 18 55 14.5 19.3 0.00 0.00 0.00 36 4457.7
20260504194543 18 40 12.9 16.1 0.00 0.00 0.00 37 4457.3
20260504194038 17 51 6.4 8.0 0.00 0.00 0.00 36 4457.7
20260504193535 17 76 11.3 16.1 0.00 0.00 0.00 37 4458.1
20260504193034 17 26 8.0 11.3 0.00 0.00 0.00 37 4457.7
20260504192532 17 46 9.7 14.5 0.00 0.00 0.00 38 4457.7
20260504192030 17 32 12.9 19.3 0.00 0.00 0.00 39 4457.7
20260504191527 17 76 8.0 11.3 0.00 0.00 0.00 38 4458.1
20260504191023 17 44 6.4 8.0 0.00 0.00 0.00 38 4458.1
20260504190520 17 71 11.3 14.5 0.00 0.00 0.00 35 4458.1
20260504190015 17 45 17.7 22.5 0.00 0.00 0.00 35 4458.1
20260504185513 17 87 14.5 19.3 0.00 0.00 0.00 34 4458.1
20260504185009 17 51 19.3 22.5 0.00 0.00 0.00 36 4458.1
20260504184504 17 37 6.4 8.0 0.00 0.00 0.00 39 4458.1
20260504184000 16 74 8.0 11.3 0.00 0.00 0.00 36 4458.4
20260504183457 17 51 17.7 22.5 0.00 0.00 0.00 35 4458.1
20260504182955 17 39 11.3 16.1 0.00 0.00 0.00 38 4458.4
20260504182452 16 47 11.3 16.1 0.00 0.00 0.00 38 4458.4
20260504181949 16 83 11.3 19.3 0.00 0.00 0.00 37 4458.7
20260504181446 16 71 12.9 16.1 0.00 0.00 0.00 38 4458.4
20260504180944 16 59 9.7 16.1 0.00 0.00 0.00 39 4458.4
20260504180443 16 41 17.7 24.1 0.00 0.00 0.00 36 4458.7
20260504175941 16 16 6.4 8.0 0.00 0.00 0.00 39 4458.4
20260504175438 16 16 12.9 19.3 0.00 0.00 0.00 39 4458.4
20260504174936 16 49 25.7 30.6 0.00 0.00 0.00 37 4458.7
20260504174433 16 47 11.3 14.5 0.00 0.00 0.00 40 4458.7
20260504173930 16 50 20.9 24.1 0.00 0.00 0.00 37 4458.7
20260504173426 16 55 14.5 16.1 0.00 0.00 0.00 38 4458.7
20260504172924 15 32 14.5 16.1 0.00 0.00 0.00 38 4458.7
20260504172420 16 48 22.5 27.4 0.00 0.00 0.00 37 4458.7
20260504171916 15 26 17.7 24.1 0.00 0.00 0.00 39 4458.7
20260504171414 15 47 17.7 22.5 0.00 0.00 0.00 37 4458.7
20260504170911 15 49 12.9 16.1 0.00 0.00 0.00 38 4459.2
20260504170407 15 51 20.9 30.6 0.00 0.00 0.00 39 4459.2
20260504160326 13 51 17.7 22.5 0.00 0.00 0.00 42 4459.5
20260504150750 13 23 4.8 11.3 0.00 0.00 0.00 49 4459.5
20260504150247 13 337 4.8 4.8 0.00 0.00 0.00 47 4459.9
20260504141217 8 172 1.6 3.2 0.00 0.00 0.00 76 4459.5
20260504140714 7 172 1.6 3.2 0.00 0.00 0.00 76 4459.5
20260504140209 7 172 0.0 0.0 0.00 0.00 0.00 75 4459.5
20260504130637 3 197 4.8 4.8 0.00 0.00 0.00 89 4458.4
20260504130134 3 197 0.0 0.0 0.00 0.00 0.00 89 4458.7
20260504110525 3 214 0.0 0.0 0.00 0.00 0.00 84 4458.1
20260504100442 5 214 0.0 0.0 0.00 0.00 0.00 84 4457.0
20260504081835 7 213 0.0 0.0 0.00 0.00 0.00 75 4456.6
20260504081332 7 213 0.0 0.0 0.00 0.00 0.00 76 4456.6
20260504080827 8 213 0.0 0.0 0.00 0.00 0.00 73 4456.6
20260504080325 8 214 0.0 0.0 0.00 0.00 0.00 73 4456.6
20260504070252 9 214 0.0 0.0 0.00 0.00 0.00 67 4456.3
20260504060213 10 243 0.0 0.0 0.00 0.00 0.00 65 4456.3
20260504050640 10 243 0.0 0.0 0.00 0.00 0.00 65 4456.3
20260504050137 10 243 3.2 3.2 0.00 0.00 0.00 67 4455.8
20260504045635 11 243 0.0 3.2 0.00 0.00 0.00 67 4456.3
20260504045134 11 243 0.0 0.0 0.00 0.00 0.00 72 4455.8
20260504044632 11 243 0.0 0.0 0.00 0.00 0.00 65 4455.8
20260504044129 11 243 0.0 0.0 0.00 0.00 0.00 61 4456.3
20260504043626 12 243 0.0 0.0 0.00 0.00 0.00 63 4456.3
20260504043123 12 243 1.6 3.2 0.00 0.00 0.00 59 4455.8
20260504042621 13 261 3.2 3.2 0.00 0.00 0.00 57 4455.8
20260504042117 13 265 3.2 3.2 0.00 0.00 0.00 56 4455.8
20260504041613 12 265 0.0 0.0 0.00 0.00 0.00 58 4456.3
20260504041109 12 265 1.6 3.2 0.00 0.00 0.00 61 4455.8
20260504040607 12 265 0.0 3.2 0.00 0.00 0.00 62 4455.5
20260504040103 12 265 1.6 3.2 0.00 0.00 0.00 59 4455.8
20260504035600 12 265 0.0 0.0 0.00 0.00 0.00 59 4455.5
20260504035056 13 266 0.0 0.0 0.00 0.00 0.00 56 4455.5
20260504034554 14 265 0.0 3.2 0.00 0.00 0.00 53 4455.5
20260504034051 15 265 3.2 3.2 0.00 0.00 0.00 50 4455.2
20260504033549 15 265 0.0 0.0 0.00 0.00 0.00 49 4455.5
20260504033046 15 265 0.0 3.2 0.00 0.00 0.00 50 4455.2
20260504032543 15 266 0.0 0.0 0.00 0.00 0.00 52 4455.2
20260504032040 15 266 0.0 3.2 0.00 0.00 0.00 47 4455.2
20260504031537 15 241 1.6 3.2 0.00 0.00 0.00 49 4455.2
20260504031033 15 239 0.0 3.2 0.00 0.00 0.00 48 4454.8
20260504030531 16 239 0.0 0.0 0.00 0.00 0.00 48 4455.2
20260504030026 16 239 0.0 0.0 0.00 0.00 0.00 47 4455.2
20260504025524 16 239 0.0 0.0 0.00 0.00 0.00 47 4454.8
20260504025020 17 255 0.0 0.0 0.00 0.00 0.00 47 4454.8
20260504024517 17 257 0.0 3.2 0.00 0.00 0.00 43 4454.8
20260504024014 18 232 0.0 3.2 0.00 0.00 0.00 46 4454.8
20260504023511 18 232 0.0 0.0 0.00 0.00 0.00 41 4454.8
20260504023007 20 232 0.0 0.0 0.00 0.00 0.00 39 4455.2
20260504022503 20 232 0.0 0.0 0.00 0.00 0.00 38 4454.8
20260504021959 21 232 3.2 4.8 0.00 0.00 0.00 33 4454.8
20260504021457 21 232 1.6 3.2 0.00 0.00 0.00 33 4454.8
20260504020954 22 232 4.8 4.8 0.00 0.00 0.00 30 4454.4
20260504020450 22 220 4.8 4.8 0.00 0.00 0.00 28 4454.4
20260504015947 22 188 3.2 3.2 0.00 0.00 0.00 27 4454.4
20260504015443 22 189 1.6 3.2 0.00 0.00 0.00 26 4454.4
20260504014939 22 184 9.7 11.3 0.00 0.00 0.00 24 4454.4
20260504014435 23 207 1.6 3.2 0.00 0.00 0.00 26 4454.8
20260504013932 23 175 4.8 4.8 0.00 0.00 0.00 23 4454.4
20260504013431 23 203 4.8 4.8 0.00 0.00 0.00 25 4454.4
20260504012927 23 167 3.2 4.8 0.00 0.00 0.00 23 4454.4
20260504012425 23 221 4.8 8.0 0.00 0.00 0.00 23 4454.8
20260504011922 23 220 4.8 4.8 0.00 0.00 0.00 24 4454.4
20260504011419 23 198 4.8 4.8 0.00 0.00 0.00 27 4454.8
20260504010915 23 165 11.3 14.5 0.00 0.00 0.00 27 4454.8
20260504010411 23 143 4.8 4.8 0.00 0.00 0.00 23 4454.4
20260504005907 23 149 8.0 8.0 0.00 0.00 0.00 26 4454.8
20260504005404 24 155 11.3 14.5 0.00 0.00 0.00 23 4454.8
20260504004903 24 167 6.4 8.0 0.00 0.00 0.00 21 4454.8
20260504004400 25 159 4.8 4.8 0.00 0.00 0.00 23 4455.2
20260504003856 24 159 3.2 3.2 0.00 0.00 0.00 22 4455.2
20260504003353 24 120 12.9 16.1 0.00 0.00 0.00 23 4454.8
20260504002849 25 189 8.0 11.3 0.00 0.00 0.00 20 4455.2
20260504002346 25 147 4.8 8.0 0.00 0.00 0.00 22 4455.2
20260504001844 24 143 11.3 11.3 0.00 0.00 0.00 20 4455.2
20260504001341 25 133 9.7 14.5 0.00 0.00 0.00 24 4455.2
20260504000837 25 203 11.3 14.5 0.00 0.00 0.00 19 4455.2
20260504000335 25 186 0.0 3.2 0.00 0.00 0.00 20 4455.2
20260503235832 25 18 0.0 0.0 0.00 0.00 0.00 18 4455.2
20260503235330 26 160 3.2 3.2 0.00 0.00 0.00 18 4455.2